Date,TemperatureHighF,TemperatureAvgF,TemperatureLowF,DewpointHighF,DewpointAvgF,DewpointLowF,HumidityHigh,HumidityAvg,HumidityLow,PressureMaxIn,PressureMinIn,WindSpeedMaxMPH,WindSpeedAvgMPH,GustSpeedMaxMPH,PrecipitationSumIn
2013-8-1,63.3,56.6,50.7,38.0,-41.9,-202.0,41,12,1,30.07,29.98,18,6,23,0.00
2013-8-2,61.9,55.0,47.6,32.0,-46.4,-202.0,33,9,1,29.98,29.89,10,3,18,0.01
2013-8-3,62.9,53.6,48.0,39.0,-51.7,-202.0,41,7,1,30.00,29.89,9,2,10,0.01
2013-8-4,63.8,55.2,51.2,40.0,-63.0,-202.0,42,8,1,30.02,29.95,8,2,10,0.00
2013-8-5,59.3,54.2,51.2,30.0,-69.0,-202.0,33,4,1,30.04,29.98,6,2,9,0.01
2013-8-6,65.8,57.3,51.9,45.0,-36.4,-202.0,49,15,1,30.05,29.98,7,2,8,0.00
2013-8-7,69.0,60.3,55.2,47.0,-39.8,-202.0,46,14,1,30.11,30.04,11,3,17,0.00
2013-8-8,62.0,56.5,51.9,33.0,-65.9,-202.0,34,5,1,30.04,29.94,11,2,15,0.01
2013-8-9,63.7,56.4,49.6,40.0,-56.6,-202.0,43,8,1,29.99,29.92,7,2,10,0.00
2013-8-10,65.8,58.6,54.1,40.0,-54.2,-202.0,40,8,1,30.06,29.99,6,1,8,0.00
2013-8-11,64.9,56.4,50.1,38.0,-48.7,-202.0,38,5,1,30.03,29.93,8,1,13,0.00
2013-8-12,64.6,55.9,50.5,42.0,-45.8,-202.0,45,8,1,30.02,29.93,5,2,10,0.01
2013-8-13,71.9,57.4,48.3,54.0,-17.6,-202.0,56,21,1,30.01,29.92,8,2,14,0.00
2013-8-14,68.4,59.1,49.7,41.0,-34.8,-202.0,43,11,1,29.98,29.91,16,3,19,0.00
2013-8-15,71.7,62.9,57.7,49.0,-59.3,-202.0,44,9,1,29.97,29.91,7,1,10,0.01
2013-8-16,66.5,60.3,54.2,42.0,-25.0,-202.0,43,10,1,30.00,29.92,14,2,17,0.01
2013-8-17,68.0,59.9,53.2,47.0,-18.4,-99.9,50,18,1,29.98,29.86,13,3,20,0.00
2013-8-18,67.2,58.5,51.2,49.0,-24.1,-202.0,53,20,1,29.90,29.77,6,2,8,0.00
2013-8-19,66.8,59.0,53.7,40.0,-52.1,-202.0,38,8,1,29.94,29.79,7,1,12,0.00
2013-8-20,68.9,60.9,55.0,48.0,-37.1,-202.0,48,12,1,29.90,29.82,18,4,24,0.00
2013-8-21,69.1,61.1,58.0,51.0,-38.7,-202.0,53,15,1,29.95,29.89,12,2,13,0.00
2013-8-22,68.1,60.1,56.1,50.0,-46.6,-202.0,52,14,1,29.99,29.91,7,2,10,0.01
2013-8-23,66.5,57.8,52.5,47.0,-40.4,-202.0,49,11,1,29.92,29.82,12,3,19,0.00
2013-8-24,62.7,56.4,50.0,29.0,-47.7,-202.0,29,5,1,29.90,29.82,12,2,14,0.01
2013-8-25,71.7,61.2,55.1,50.0,-57.2,-202.0,46,9,1,29.96,29.87,8,1,9,0.00
2013-8-26,65.6,58.3,52.6,46.0,-13.8,-202.0,50,14,1,30.03,29.92,12,2,19,0.00
2013-8-27,67.4,58.7,52.2,41.0,-41.2,-202.0,39,9,1,29.92,29.84,13,2,20,0.00
2013-8-28,70.8,61.0,54.3,48.0,-52.8,-202.0,44,8,1,29.95,29.84,7,1,8,0.01
2013-8-29,69.8,63.3,59.2,41.0,-55.2,-202.0,37,5,1,30.08,29.94,6,1,10,0.01
2013-8-30,69.8,62.2,56.1,47.0,-20.5,-202.0,44,14,1,30.04,29.93,12,3,18,0.08
2013-8-31,66.6,57.8,51.1,57.0,-11.7,-202.0,95,36,1,29.98,29.88,12,2,17,0.01